Location: Mentone
(34.5413°N, 85.5351°W)
Time: 10:56:17
(UTC-05:00)

UOSAT-12 - Visible Passes

Search period start: 30 June 2016 00:00
Search period end: 10 July 2016 00:00
Orbit: 623 x 631 km, 64.6° (Epoch: 29 June)

Date Brightness Start Highest point End Pass type
(mag) Time Alt. Az. Time Alt. Az. Time Alt. Az.
30 Jun 8.9 01:21:42 10° NNW 01:23:49 27° NNW 01:23:49 27° NNW visible
01 Jul 9.3 00:02:32 10° N 00:05:23 19° NE 00:05:23 19° NE visible
01 Jul 9.5 01:41:46 10° NW 01:42:39 15° NW 01:42:39 15° NW visible
02 Jul 8.9 00:21:38 10° NNW 00:24:16 29° N 00:24:16 29° N visible
02 Jul 9.7 23:04:02 10° NNE 23:05:10 11° NE 23:05:57 10° NE visible
03 Jul 9.1 00:41:18 10° NNW 00:43:14 25° NNW 00:43:14 25° NNW visible
03 Jul 9.1 23:21:55 10° N 23:24:58 22° NE 23:24:58 22° NE visible
04 Jul 9.7 01:01:31 10° NW 01:02:14 14° NW 01:02:14 14° NW visible
04 Jul 8.6 23:41:10 10° NNW 23:44:02 34° N 23:44:02 34° N visible
05 Jul 9.5 22:22:52 10° NNE 22:24:54 13° NE 22:25:52 12° ENE visible
06 Jul 8.9 00:00:56 10° NW 00:03:08 28° NW 00:03:08 28° NW visible
06 Jul 8.6 22:41:20 10° N 22:45:01 26° NE 22:45:01 26° NE visible
07 Jul 9.6 00:21:18 10° NW 00:22:18 15° WNW 00:22:18 15° WNW visible
07 Jul 7.9 23:00:43 10° NNW 23:04:13 46° N 23:04:13 46° N visible
08 Jul 9.2 21:42:00 10° NNE 21:44:37 15° NE 21:46:11 13° ENE visible
08 Jul 8.4 23:20:36 10° NW 23:23:29 36° NW 23:23:29 36° NW visible
09 Jul 8.2 22:00:48 10° N 22:04:49 30° NE 22:05:29 29° ENE visible
09 Jul 9.4 23:41:08 10° WNW 23:42:47 18° WNW 23:42:47 18° WNW visible
